INSAT-4A                
1 28911U 05049A   19265.52255587 -.00000173  00000-0  00000+0 0  9992
2 28911   0.1062 102.9139 0008548 145.6968  23.6425  1.00271142 50422
METEOSAT-9 (MSG-2)      
1 28912U 05049B   19265.29129350  .00000013  00000-0  00000+0 0  9997
2 28912   3.8565  70.9613 0001244 120.3781 277.8842  1.00266745 50419
ARIANE 5 R/B            
1 28913U 05049C   19264.45610883 -.00000104  00000-0 -18800-2 0  9994
2 28913   3.6492 148.7724 7150731 319.4272 223.2139  2.24864010112995
ARIANE 5 DEB [SYLDA]    
1 28914U 05049D   19265.86249310 -.00000091  00000-0 -25181-2 0  9999
2 28914   3.7306 168.2336 7163524 284.3222 271.0842  2.23454696112273
MSG-2 DEB [COOLER COVER]
1 29106U 05049E   19250.23232972 -.00000296  00000-0  00000+0 0  9990
2 29106   9.1606  47.7424 0016902 182.8517 123.4381  1.01173238 49876